Location: Clyde
(45.1830°S, 169.3170°E)
Time: 17:35:09
(UTC+13:00)

Elektron 1 - Pass Details

Date: 24 January 2019
Orbit: 410 x 6307 km, 60.9° (Epoch: 22 February)

Event Time Altitude Azimuth Distance (km) Brightness Sun altitude
Rises 22:20:29 0° 317° (NW) 4,032 8.8 -9.3°
Reaches altitude 10° 22:23:58 10° 315° (NW) 2,473 7.7 -9.8°
Maximum altitude 22:28:54 78° 229° (SW) 554 4.4 -10.4°
Drops below altitude 10° 22:31:59 10° 140° (SE) 1,560 6.7 -10.8°
Sets 22:33:44 0° 138° (SE) 2,387 7.6 -11.1°
